| time (UTC) | temp C | wind direction | speed KPH | gust KPH | rain 1hr cm | rain 24hr cm | rain mn cm | humidity % | barometer mb |
| 20260507161121 | 16 | 352 | 0.0 | 11.3 | 0.00 | 0.79 | 0.79 | 57 | 1006.9 |
| 20260507155621 | 15 | 337 | 8.0 | 22.5 | 0.00 | 0.79 | 0.79 | 66 | 1007.0 |
| 20260507154118 | 15 | 3 | 9.7 | 12.9 | 0.00 | 0.79 | 0.79 | 65 | 1007.0 |
| 20260507152613 | 15 | 6 | 4.8 | 12.9 | 0.00 | 0.79 | 0.79 | 72 | 1007.1 |
| 20260507151109 | 13 | 303 | 3.2 | 9.7 | 0.00 | 0.79 | 0.79 | 77 | 1007.3 |
| 20260507145603 | 13 | 10 | 0.0 | 9.7 | 0.00 | 0.79 | 0.79 | 80 | 1007.6 |
| 20260507144101 | 13 | 340 | 9.7 | 16.1 | 0.00 | 0.79 | 0.79 | 80 | 1007.4 |
| 20260507142601 | 13 | 328 | 11.3 | 11.3 | 0.00 | 0.79 | 0.79 | 83 | 1007.6 |
| 20260507141057 | 12 | 2 | 6.4 | 22.5 | 0.00 | 0.79 | 0.79 | 81 | 1007.2 |
| 20260507135553 | 12 | 315 | 6.4 | 12.9 | 0.00 | 0.79 | 0.79 | 87 | 1007.7 |
| 20260507134049 | 11 | 353 | 0.0 | 14.5 | 0.00 | 0.79 | 0.79 | 91 | 1007.9 |
| 20260507132545 | 11 | 296 | 4.8 | 9.7 | 0.00 | 0.79 | 0.79 | 93 | 1007.6 |
| 20260507131042 | 11 | 261 | 6.4 | 16.1 | 0.00 | 0.79 | 0.79 | 93 | 1008.0 |
| 20260507125541 | 11 | 12 | 1.6 | 4.8 | 0.00 | 0.79 | 0.79 | 97 | 1007.6 |
| 20260507124038 | 10 | 241 | 3.2 | 12.9 | 0.00 | 0.79 | 0.79 | 99 | 1007.9 |
| 20260507122533 | 10 | 97 | 1.6 | 8.0 | 0.00 | 0.79 | 0.79 | 99 | 1007.8 |
| 20260507121032 | 10 | 337 | 0.0 | 4.8 | 0.00 | 0.79 | 0.79 | 99 | 1008.0 |
| 20260507115528 | 10 | 330 | 8.0 | 8.0 | 0.00 | 0.79 | 0.79 | 99 | 1007.8 |
| 20260507114023 | 10 | 14 | 0.0 | 3.2 | 0.05 | 0.79 | 0.79 | 99 | 1007.5 |
| 20260507112521 | 9 | 14 | 0.0 | 6.4 | 0.13 | 0.76 | 0.76 | 99 | 1007.4 |
| 20260507111016 | 9 | 0 | 0.0 | 4.8 | 0.18 | 0.74 | 0.74 | 99 | 1007.6 |
| 20260507105512 | 9 | 0 | 0.0 | 11.3 | 0.30 | 0.69 | 0.69 | 99 | 1007.7 |
| 20260507104008 | 9 | 11 | 3.2 | 11.3 | 0.00 | 0.64 | 0.64 | 99 | 1007.1 |
| 20260507102504 | 9 | 33 | 0.0 | 11.3 | 0.05 | 0.64 | 0.64 | 99 | 1006.7 |
| 20260507100958 | 9 | 324 | 4.8 | 12.9 | 0.05 | 0.61 | 0.61 | 99 | 1007.1 |
| 20260507095457 | 9 | 26 | 3.2 | 9.7 | 0.13 | 0.61 | 0.61 | 99 | 1007.3 |
| 20260507093952 | 10 | 313 | 4.8 | 8.0 | 0.05 | 0.58 | 0.58 | 99 | 1007.1 |
| 20260507092450 | 10 | 348 | 6.4 | 12.9 | 0.13 | 0.56 | 0.56 | 99 | 1007.0 |
| 20260507090945 | 9 | 5 | 4.8 | 12.9 | 0.18 | 0.53 | 0.53 | 99 | 1006.4 |
| 20260507085441 | 9 | 9 | 6.4 | 14.5 | 0.23 | 0.48 | 0.48 | 99 | 1006.7 |
| 20260507083938 | 9 | 348 | 6.4 | 17.7 | 0.05 | 0.43 | 0.43 | 99 | 1006.4 |
| 20260507082438 | 10 | 12 | 9.7 | 12.9 | 0.13 | 0.41 | 0.41 | 99 | 1006.3 |
| 20260507080935 | 11 | 352 | 4.8 | 12.9 | 0.23 | 0.38 | 0.38 | 99 | 1006.4 |
| 20260507075434 | 11 | 296 | 4.8 | 14.5 | 0.89 | 0.30 | 0.30 | 99 | 1006.3 |
| 20260507073931 | 11 | 270 | 3.2 | 9.7 | 0.36 | 0.10 | 0.10 | 99 | 1005.7 |
| 20260507072428 | 11 | 336 | 3.2 | 4.8 | 0.00 | 0.03 | 0.03 | 99 | 1005.5 |
| 20260507070924 | 11 | 120 | 1.6 | 3.2 | 0.00 | 0.03 | 0.03 | 99 | 1005.1 |
| 20260507065421 | 11 | 117 | 0.0 | 3.2 | 0.00 | 0.03 | 0.03 | 99 | 1005.1 |
| 20260507063920 | 11 | 10 | 4.8 | 4.8 | 0.00 | 0.03 | 0.03 | 99 | 1005.6 |
| 20260507062416 | 11 | 334 | 3.2 | 4.8 | 0.00 | 0.03 | 0.03 | 99 | 1005.6 |
| 20260507060916 | 11 | 265 | 3.2 | 4.8 | 0.05 | 0.03 | 0.03 | 99 | 1005.3 |
| 20260507055416 | 11 | 66 | 1.6 | 6.4 | 0.00 | 0.00 | 0.00 | 99 | 1005.5 |
| 20260507053913 | 11 | 219 | 4.8 | 8.0 | 0.00 | 0.00 | 0.00 | 99 | 1005.8 |
| 20260507052412 | 11 | 180 | 1.6 | 6.4 | 0.00 | 0.00 | 0.00 | 99 | 1006.2 |
| 20260507050909 | 11 | 350 | 3.2 | 8.0 | 0.00 | 0.00 | 0.00 | 99 | 1006.3 |
| 20260507045404 | 11 | 15 | 1.6 | 6.4 | 0.00 | 0.00 | 0.00 | 99 | 1006.2 |
| 20260507043900 | 11 | 187 | 0.0 | 3.2 | 0.00 | 0.00 | 0.00 | 99 | 1006.5 |
| 20260507042355 | 11 | 277 | 4.8 | 8.0 | 0.00 | 0.00 | 0.00 | 99 | 1006.4 |
| 20260507040852 | 11 | 180 | 0.0 | 8.0 | 0.00 | 0.00 | 0.00 | 99 | 1006.2 |
| 20260507035350 | 12 | 183 | 4.8 | 4.8 | 0.00 | 0.33 | 0.33 | 99 | 1006.6 |
| 20260507033848 | 12 | 169 | 1.6 | 6.4 | 0.00 | 0.33 | 0.33 | 99 | 1006.7 |
| 20260507032344 | 12 | 7 | 3.2 | 3.2 | 0.00 | 0.33 | 0.33 | 99 | 1007.0 |
| 20260507030840 | 12 | 176 | 3.2 | 4.8 | 0.00 | 0.33 | 0.33 | 99 | 1006.7 |
| 20260507025337 | 12 | 34 | 3.2 | 8.0 | 0.00 | 0.33 | 0.33 | 99 | 1006.4 |
| 20260507023834 | 12 | 233 | 0.0 | 6.4 | 0.00 | 0.33 | 0.33 | 99 | 1006.7 |
| 20260507022329 | 12 | 257 | 3.2 | 8.0 | 0.00 | 0.33 | 0.33 | 99 | 1006.8 |
| 20260507020825 | 12 | 99 | 0.0 | 6.4 | 0.00 | 0.33 | 0.33 | 99 | 1006.5 |
| 20260507015322 | 12 | 305 | 4.8 | 17.7 | 0.00 | 0.33 | 0.33 | 99 | 1006.7 |
| 20260507013817 | 12 | 63 | 0.0 | 14.5 | 0.00 | 0.33 | 0.33 | 99 | 1007.0 |
| 20260507012314 | 12 | 214 | 4.8 | 11.3 | 0.00 | 0.33 | 0.33 | 99 | 1006.9 |
| 20260507010814 | 12 | 90 | 8.0 | 11.3 | 0.00 | 0.33 | 0.33 | 99 | 1007.1 |
| 20260507005309 | 12 | 270 | 8.0 | 14.5 | 0.00 | 0.33 | 0.33 | 99 | 1007.4 |
| 20260507003806 | 12 | 263 | 4.8 | 16.1 | 0.00 | 0.33 | 0.33 | 99 | 1007.0 |
| 20260507002306 | 12 | 221 | 3.2 | 17.7 | 0.00 | 0.33 | 0.33 | 99 | 1007.1 |
| 20260507000802 | 12 | 233 | 8.0 | 25.7 | 0.00 | 0.33 | 0.33 | 99 | 1007.1 |
| 20260506235256 | 12 | 199 | 12.9 | 22.5 | 0.00 | 0.33 | 0.33 | 99 | 1007.3 |
| 20260506233754 | 12 | 209 | 8.0 | 16.1 | 0.00 | 0.33 | 0.33 | 99 | 1007.1 |
| 20260506232253 | 12 | 289 | 4.8 | 9.7 | 0.00 | 0.33 | 0.33 | 99 | 1007.1 |
| 20260506230751 | 11 | 194 | 4.8 | 12.9 | 0.05 | 0.33 | 0.33 | 99 | 1007.1 |
| 20260506225248 | 12 | 4 | 3.2 | 9.7 | 0.00 | 0.33 | 0.33 | 99 | 1007.0 |
| 20260506223743 | 11 | 23 | 3.2 | 20.9 | 0.05 | 0.30 | 0.30 | 99 | 1007.0 |
| 20260506222238 | 11 | 219 | 4.8 | 6.4 | 0.18 | 0.28 | 0.28 | 99 | 1006.9 |
| 20260506220737 | 11 | 101 | 4.8 | 14.5 | 0.23 | 0.23 | 0.23 | 99 | 1007.2 |
| 20260506215236 | 11 | 222 | 4.8 | 16.1 | 0.18 | 0.18 | 0.18 | 99 | 1007.5 |
| 20260506213734 | 11 | 270 | 4.8 | 14.5 | 0.00 | 0.15 | 0.15 | 99 | 1007.7 |
| 20260506212230 | 12 | 293 | 3.2 | 14.5 | 0.05 | 0.13 | 0.13 | 99 | 1007.8 |
| 20260506210725 | 12 | 274 | 8.0 | 11.3 | 0.00 | 0.10 | 0.10 | 99 | 1008.0 |
| 20260506205220 | 12 | 197 | 0.0 | 16.1 | 0.05 | 0.10 | 0.10 | 99 | 1008.1 |
| 20260506203718 | 12 | 206 | 4.8 | 11.3 | 0.05 | 0.10 | 0.10 | 98 | 1008.4 |
| 20260506202214 | 12 | 315 | 3.2 | 12.9 | 0.00 | 0.08 | 0.08 | 97 | 1008.1 |
| 20260506200711 | 12 | 265 | 6.4 | 22.5 | 0.00 | 0.08 | 0.08 | 96 | 1008.5 |
| 20260506195207 | 13 | 206 | 11.3 | 19.3 | 0.05 | 0.08 | 0.08 | 96 | 1008.5 |
| 20260506193704 | 13 | 90 | 3.2 | 11.3 | 0.23 | 0.08 | 0.08 | 95 | 1008.5 |
| 20260506192200 | 14 | 10 | 4.8 | 16.1 | 0.00 | 0.03 | 0.03 | 91 | 1008.4 |
| 20260506190656 | 15 | 166 | 14.5 | 24.1 | 0.00 | 0.03 | 0.03 | 87 | 1008.9 |
| 20260506185152 | 15 | 270 | 12.9 | 35.4 | 0.00 | 0.03 | 0.03 | 87 | 1008.8 |
| 20260506183649 | 15 | 225 | 9.7 | 20.9 | 0.00 | 0.03 | 0.03 | 87 | 1009.0 |
| 20260506182145 | 15 | 206 | 6.4 | 20.9 | 0.00 | 0.03 | 0.03 | 86 | 1009.1 |
| 20260506180643 | 15 | 188 | 16.1 | 24.1 | 0.00 | 0.03 | 0.03 | 86 | 1009.1 |
| 20260506175138 | 15 | 180 | 4.8 | 19.3 | 0.00 | 0.03 | 0.03 | 86 | 1009.5 |
| 20260506173637 | 15 | 201 | 19.3 | 20.9 | 0.00 | 0.03 | 0.03 | 85 | 1009.8 |
| 20260506172133 | 16 | 56 | 3.2 | 22.5 | 0.00 | 0.03 | 0.03 | 84 | 1010.0 |
| 20260506170631 | 17 | 232 | 8.0 | 11.3 | 0.00 | 0.03 | 0.03 | 81 | 1009.7 |
| 20260506165127 | 17 | 228 | 6.4 | 19.3 | 0.00 | 0.03 | 0.03 | 80 | 1010.0 |
| 20260506163623 | 16 | 323 | 6.4 | 20.9 | 0.00 | 0.03 | 0.03 | 84 | 1010.2 |
| 20260506162122 | 16 | 315 | 3.2 | 17.7 | 0.00 | 0.03 | 0.03 | 85 | 1010.5 |